Location: D�derode
(51.8092°N, 10.1065°E)
Time: 05:59:24
(UTC+00:00)

CENTAUR R/B - Pass Details

Date: 01 December 2020
Orbit: 750 x 1438 km, 63.4° (Epoch: 11 January)

Event Time Altitude Azimuth Distance (km) Brightness Sun altitude
Rises 18:01:13 0° 195° (SSW) 3,407 5.6 -25.1°
Reaches altitude 10° 18:03:38 10° 188° (S) 2,552 4.8 -25.4°
Enters shadow 18:07:44 37° 152° (SSE) 1,458 3.2 -26.1°
